Flag for Germany Weather past 2 weeks in Schleswig, Schleswig-Holstein, Germany

Now
53 °F

Overcast.


Feels Like: 53 °F
Forecast: 49 / 58 °F
Wind: 3 mph from Southwest

Location: Schleswig

Current Time: Sep 3, 2015 at 2:47:05 AM

Latest Report: Sep 3, 2015 at 2:00 AM


Visibility: 19 mi

Pressure: 29.90 "Hg

Humidity: 97%

Dew point: 52 °F

Location of SchleswigLocation

Historic Weather in Schleswig — Graph

°F

Schleswig temperature yesterday

Maximum temperature yesterday: 64 °F (at 1:00 PM)
Minimum temperature yesterday: 54 °F (at 2:00 AM)
Average temperature yesterday: 58 °F

Past Weeks' High & Low Weather Summary

 TemperatureHumidityPressure
High76 °F (Aug 21, 3:00 PM)100% (Aug 19, 4:00 AM)30.31 "Hg (Aug 19, 4:00 AM)
Low51 °F (Aug 29, 4:00 AM)36% (Aug 21, 3:00 PM)29.59 "Hg (Aug 24, 10:00 PM)
Average63 °F83%29.98 "Hg
* Reported Aug 19 2:00 AM — Sep 3 2:00 AM, Schleswig, Weather by CustomWeather, © 2015

Note: Actual official high and low records may vary slightly from our data, if they occured in-between our weather recording intervals... More about our weather records

Advertising

Schleswig weather history for previous 24 hours

 ConditionsComfort  
Time TempWeatherWind HumidityBarometerVisibility
2:00 AM
Thu, Sep 3
53 °FOvercast.3 mph97%29.90 "Hg19 mi
1:00 AM53 °FPassing clouds.5 mph97%29.91 "Hg19 mi
10:00 PM
Wed, Sep 2
55 °FPassing clouds.5 mph91%29.91 "Hg19 mi
9:00 PM56 °FPassing clouds.5 mph92%29.90 "Hg19 mi
8:00 PM57 °FScattered clouds.5 mph86%29.90 "Hg19 mi
7:00 PM59 °FScattered clouds.6 mph79%29.89 "Hg19 mi
6:00 PM61 °FPartly sunny.6 mph77%29.89 "Hg25 mi
4:00 PM62 °FScattered clouds.6 mph73%29.88 "Hg25 mi
3:00 PM64 °FScattered clouds.7 mph73%29.88 "Hg25 mi
2:00 PM61 °FScattered clouds.7 mph83%29.88 "Hg25 mi
1:00 PM64 °FScattered clouds.7 mph71%29.87 "Hg25 mi
12:00 PM62 °FScattered clouds.7 mph72%29.86 "Hg25 mi
11:00 AM62 °FScattered clouds.7 mph77%29.85 "Hg22 mi
10:00 AM57 °FSprinkles. Partly sunny.8 mph88%29.84 "Hg12 mi
9:00 AM60 °FScattered clouds.7 mph78%29.83 "Hg22 mi
8:00 AM57 °FPassing clouds.6 mph84%29.83 "Hg22 mi
7:00 AM55 °FScattered clouds.5 mph88%29.83 "Hg25 mi
6:00 AM55 °FPassing clouds.5 mph90%29.83 "Hg22 mi
5:00 AM55 °FPassing clouds.3 mph92%29.83 "Hg22 mi
4:00 AM55 °FPassing clouds.3 mph91%29.84 "Hg25 mi
3:00 AM54 °FPassing clouds.3 mph90%29.84 "Hg25 mi
2:00 AM54 °FPassing clouds.3 mph91%29.84 "Hg25 mi
Weather by CustomWeather, © 2015

See weather overviewHow to use our weather pages